Location: Casilda
(33.0440°S, 61.1680°W)
Time: 21:59:56
(UTC-03:00)

ISS - Pass Details

Date: 23 December 2025
Orbit: 414 x 424 km, 51.6° (Epoch: 13 January)

Event Time Altitude Azimuth Distance (km) Brightness Sun altitude
Rises 21:04:10 0° 210° (SSW) 2,382 1.4 -9.7°
Reaches altitude 10° 21:07:08 10° 182° (S) 1,511 -0.4 -10.2°
Maximum altitude 21:08:55 14° 150° (SSE) 1,312 -1.2 -10.5°
Drops below altitude 10° 21:10:41 10° 118° (ESE) 1,505 -1.2 -10.8°
Enters shadow 21:11:49 - 104° (ESE) 1,787 -0.9 -11.0°
